Helicity
79 162 214 90 77 56 55 89 97 77 94 92 96 124 54 36 25 -33 79 156 194 331 514 558 562 498 432 310 196 153 114 89 70 74 94 111 106 103 108 132 169 168 193 167
87 105 86 81 80 56 52 96 98 80 63 139 122 127 96 2 -42 49 99 133 103 422 502 520 465 421 320 204 165 141 86 59 64 50 44 26 45 41 66 54 61 93 126 177
114 186 73 61 75 85 92 196 107 99 89 93 127 101 67 68 48 32 -8 58 297 483 520 451 363 386 287 215 172 81 66 74 58 68 30 19 8 14 -4 29 58 49 108 159
154 141 96 94 71 101 73 170 253 181 184 177 273 156 120 85 7 66 87 41 606 853 552 529 511 385 207 196 107 48 48 53 52 34 21 29 12 32 39 32 55 55 54 61
211 141 173 174 138 144 116 165 255 199 170 195 146 201 243 97 41 57 200 190 487 471 498 499 473 275 232 165 57 31 43 35 39 25 9 8 24 21 28 33 26 33 38 64
85 152 185 121 120 171 133 141 93 112 190 215 176 208 96 82 100 81 213 353 694 574 498 437 317 224 201 131 53 15 41 45 25 19 24 21 23 27 30 39 20 20 62 59
175 102 142 142 143 166 264 231 161 124 139 224 78 133 238 88 96 23 124 431 518 561 525 357 252 192 263 89 7 -14 -24 -0 17 27 22 29 17 14 20 27 27 18 48 58
189 159 83 130 153 144 225 202 137 152 137 109 100 101 68 139 407 531 643 751 524 391 302 222 145 139 107 45 -29 -53 -53 -34 -15 30 52 39 31 10 9 20 27 49 91 93
135 106 137 137 124 123 142 138 107 82 47 90 108 67 145 187 194 299 428 432 406 402 311 169 36 55 54 1 -19 -33 -38 -40 -12 21 41 55 50 37 33 44 58 75 74 100
248 199 75 71 106 57 73 81 122 121 104 74 32 40 31 169 225 382 275 317 210 230 72 17 3 40 -1 -2 -29 -34 -23 -11 9 16 19 25 41 43 43 53 59 70 58 58
282 211 129 117 139 99 107 30 91 93 84 87 53 38 -17 9 20 63 101 92 115 104 87 55 43 29 5 11 27 13 18 26 26 26 27 28 45 56 67 72 108 90 69 67
243 263 195 72 89 92 80 95 125 124 41 122 91 91 3 -82 -64 17 -0 83 73 83 39 27 13 18 17 30 49 42 43 54 43 38 26 30 50 60 80 90 129 125 97 119
285 220 251 190 137 117 120 127 168 111 75 1 34 34 -46 -36 11 141 86 74 22 -15 -43 -34 -8 17 42 58 68 58 61 63 48 45 51 57 72 84 117 115 131 128 136 166
195 266 243 192 133 128 104 38 71 138 74 15 66 26 34 177 276 268 152 107 74 51 47 30 28 52 71 79 77 63 76 65 67 64 65 83 94 92 93 97 101 120 159 204
273 271 199 165 71 20 123 131 64 76 92 78 50 136 271 321 278 222 191 143 140 86 99 69 59 78 86 88 83 83 86 86 85 77 76 95 101 89 101 113 107 125 173 262
203 211 200 170 144 121 105 210 220 208 194 161 156 256 257 246 239 246 192 134 85 69 76 89 90 100 99 113 105 99 107 114 96 88 87 85 71 87 134 139 127 156 204 193
161 182 202 178 130 176 125 148 190 210 268 238 285 321 261 226 194 172 109 79 56 55 62 78 82 106 115 110 103 117 127 124 118 100 83 72 59 83 115 137 174 179 216 217
200 136 211 158 176 124 149 191 175 233 271 326 287 248 216 155 132 124 99 85 79 68 65 66 74 75 92 105 111 119 122 120 100 85 75 52 63 86 90 118 133 149 121 156
80 127 193 207 150 149 108 119 94 104 129 187 226 133 123 64 65 92 110 119 80 58 42 58 57 70 92 104 113 91 88 85 86 103 67 56 37 36 61 77 66 55 69 105
73 68 109 129 133 98 130 55 79 79 80 96 159 165 113 63 81 82 127 86 62 51 63 52 47 69 96 122 111 82 67 41 51 54 36 7 7 14 26 31 26 -0 -20 -3
132 126 88 78 81 96 132 124 79 84 48 109 103 97 69 178 154 154 83 63 53 45 33 32 45 60 78 88 110 63 -1 2 5 -17 -10 20 15 20 24 15 13 6 10 4
127 102 79 75 80 62 117 63 47 92 118 111 109 126 185 186 163 111 60 73 75 38 28 23 26 37 42 65 81 82 34 -6 3 -16 -47 -42 -26 -15 10 24 40 28 4 7
66 81 90 114 91 79 96 98 102 110 95 74 89 85 83 78 53 25 27 50 70 62 35 2 4 27 53 77 82 77 80 -10 -7 14 9 -25 -31 -34 -39 -21 -2 21 9 -6
91 54 72 64 61 66 79 102 120 98 84 55 41 56 43 29 16 12 5 32 48 57 47 34 31 35 37 44 60 74 68 49 6 4 14 10 -3 -10 -26 -46 -47 -47 -20 -6
42 103 83 94 80 75 57 72 76 72 63 60 29 19 12 -2 -15 -8 2 13 28 31 34 34 27 20 29 38 60 77 84 31 11 8 17 17 9 -3 -25 -46 -60 -85 -77 -48
69 59 46 33 100 46 81 68 51 51 42 33 23 25 21 19 17 17 8 7 15 21 25 23 23 20 27 17 28 50 41 10 3 7 11 16 18 13 -1 -9 -33 10 32 66
Wind_Speed
41 54 64 63 60 66 79 88 99 110 99 97 107 104 99 110 95 86 68 44 40 30 17 15 19 24 31 37 43 48 51 54 56 58 60 64 68 72 74 75 78 79 71 59
53 67 57 61 62 70 78 91 103 109 99 87 102 113 101 100 102 93 78 50 43 17 15 14 20 26 30 36 40 46 50 54 56 57 59 59 64 63 73 78 83 83 85 78
67 62 53 61 71 74 81 83 92 98 94 92 97 110 99 97 87 87 79 65 43 29 21 11 19 23 30 37 45 48 53 56 58 62 63 65 66 66 66 72 82 87 88 88
70 56 62 65 69 61 88 57 68 82 85 98 68 107 94 84 89 80 90 77 20 18 8 6 13 24 32 40 44 51 55 58 60 62 63 67 70 76 76 80 83 89 94 94
63 64 57 57 53 52 61 55 58 64 74 81 76 70 66 65 82 68 75 41 19 16 11 6 13 23 33 41 47 52 56 58 61 63 64 68 74 76 79 81 87 91 92 92
59 48 46 50 49 48 53 55 63 64 63 72 68 49 61 67 64 59 41 32 27 18 8 12 19 27 35 42 47 55 60 63 65 67 70 72 77 81 82 85 89 89 89 89
55 53 49 44 52 50 44 50 60 61 52 61 49 46 27 28 64 63 31 13 8 4 12 21 25 31 41 44 52 58 65 69 72 72 73 76 77 80 82 85 86 90 86 83
54 62 39 32 33 39 32 32 41 54 51 59 52 40 48 56 26 9 15 20 3 9 11 18 26 35 40 48 55 61 68 72 74 74 76 77 77 79 80 83 86 87 83 79
46 52 48 30 33 19 33 34 34 49 53 57 42 49 46 41 25 3 5 6 7 16 21 25 31 40 46 52 59 65 71 73 76 76 76 77 78 80 82 85 84 82 77 72
41 57 43 36 24 20 25 26 33 34 47 44 45 45 44 45 21 11 11 12 12 17 22 28 35 46 52 59 63 68 72 74 77 76 75 77 78 80 82 83 83 83 78 79
33 36 38 32 34 28 20 25 34 32 31 44 50 40 37 36 31 19 17 16 20 21 33 39 46 52 58 63 66 70 74 76 77 77 76 76 78 79 80 81 80 80 79 81
29 35 40 37 37 29 29 25 21 36 36 40 49 51 41 39 36 23 15 21 25 31 38 47 54 59 62 66 70 72 75 75 75 75 74 74 76 78 78 81 80 78 79 76
32 40 36 42 47 39 34 29 19 27 32 41 48 43 36 31 29 21 21 26 32 38 47 55 59 64 67 69 71 72 72 73 73 72 72 73 75 77 78 80 80 77 78 76
31 44 41 49 41 39 34 23 23 31 38 40 49 41 41 32 30 31 34 38 44 52 60 64 65 67 68 69 70 70 70 70 70 71 70 72 73 76 77 78 79 77 75 74
40 47 44 48 38 31 45 33 29 27 33 38 47 35 35 35 38 42 45 51 59 65 66 67 68 68 66 67 67 67 67 66 67 66 67 69 71 73 75 76 76 76 71 68
46 52 45 47 43 33 39 42 41 42 47 42 30 35 33 37 42 50 54 56 60 61 62 61 63 64 64 65 64 62 62 62 62 62 65 67 69 71 73 74 75 73 70 64
35 38 38 48 37 43 46 41 42 35 43 48 48 35 28 38 43 48 50 51 54 55 57 58 60 61 59 59 58 57 56 57 58 59 62 64 67 69 72 72 71 70 69 64
35 30 31 34 22 36 31 35 32 28 36 37 32 29 30 31 35 44 48 50 51 52 52 54 54 52 53 52 51 51 52 53 54 56 59 62 65 67 69 71 70 66 64 64
24 27 29 30 28 28 30 35 34 34 38 36 36 28 25 25 34 43 42 44 44 44 44 47 46 46 46 47 48 47 50 51 54 57 59 61 63 64 65 65 65 63 62 63
30 29 27 31 40 44 28 23 24 31 37 32 34 35 29 24 43 37 35 37 38 38 40 41 41 39 36 31 30 34 38 46 48 51 53 53 55 58 59 59 58 59 61 62
22 33 35 38 35 31 26 31 29 38 36 29 32 36 31 29 30 20 26 32 32 34 38 34 29 28 25 21 24 31 39 39 37 45 47 50 56 59 55 53 56 56 60 60
27 26 30 31 33 34 37 31 30 25 26 28 31 32 27 22 23 24 21 30 31 23 18 20 27 26 24 22 22 28 35 40 37 38 45 52 56 58 62 56 53 55 57 58
27 30 23 29 29 25 25 23 25 23 24 27 28 28 27 26 26 18 33 26 19 18 16 17 13 20 25 29 33 30 30 33 41 44 50 58 62 65 65 65 66 63 60 58
28 19 25 23 20 18 21 24 26 25 26 25 29 32 32 33 14 21 30 11 12 10 14 21 25 25 23 23 26 25 23 24 37 49 54 59 63 66 68 69 71 71 72 70
31 22 17 24 12 16 17 21 25 26 27 23 29 34 41 38 25 27 23 20 19 22 18 16 11 8 9 13 22 27 34 46 54 59 63 64 66 67 66 67 69 69 71 72
31 22 22 25 12 17 17 22 24 22 24 22 29 28 25 28 26 23 23 17 8 8 9 13 17 22 25 34 43 45 51 57 58 60 63 66 66 67 67 68 67 65 67 73
Wind_Direction
302 295 294 300 300 299 299 300 301 300 307 308 302 298 300 299 300 294 296 284 276 260 239 259 281 296 303 311 315 315 313 314 312 307 303 299 294 292 288 287 285 283 288 281
298 292 297 299 299 299 299 300 301 303 308 309 304 300 301 298 290 286 287 273 271 230 239 266 289 300 307 313 319 317 315 313 310 310 308 307 303 300 294 289 284 282 281 283
292 301 309 302 302 302 299 298 304 306 311 308 308 301 303 296 291 285 275 281 252 204 219 259 302 309 312 321 321 318 315 313 310 311 310 308 306 304 302 297 288 282 282 282
295 295 300 302 302 306 302 304 309 313 315 308 322 306 302 301 293 287 259 278 207 186 186 277 304 313 319 326 326 321 318 315 313 314 313 311 306 301 301 298 294 289 284 284
290 303 302 305 309 315 308 319 318 317 313 313 309 310 296 306 288 296 267 256 223 221 209 269 330 316 321 327 323 324 323 320 318 318 315 311 308 307 303 301 298 293 291 287
291 304 301 304 312 311 314 315 314 315 316 310 314 304 282 299 297 290 286 250 219 241 278 307 332 321 328 324 322 323 323 321 319 317 314 313 311 307 305 302 300 299 297 292
300 293 298 298 301 305 312 317 315 316 318 318 331 323 275 317 311 282 239 212 138 197 290 298 318 324 328 326 320 322 321 319 316 314 314 312 312 310 306 305 304 300 302 299
302 304 304 294 287 310 308 314 314 318 322 326 335 331 330 330 353 0 115 155 112 7 312 316 331 331 330 324 323 323 322 321 319 317 314 312 311 312 309 305 304 304 306 306
304 304 319 310 301 291 316 309 324 310 314 319 328 317 331 335 340 86 98 69 343 329 324 321 331 334 330 327 325 325 322 321 321 320 317 314 313 311 309 306 308 312 314 312
297 300 307 306 308 301 307 337 319 320 322 323 319 310 320 330 330 9 333 357 5 350 333 332 332 337 340 336 331 328 325 322 322 323 321 316 313 311 311 312 312 316 318 314
281 297 307 305 298 296 296 289 317 321 321 318 306 302 308 332 346 320 331 351 4 344 336 328 334 340 336 337 333 329 327 324 324 324 321 318 314 313 314 316 320 321 319 312
273 293 291 291 310 302 302 287 280 302 314 308 303 281 316 324 323 339 337 345 344 347 330 332 331 333 333 333 333 332 329 326 325 325 322 320 317 316 321 319 323 326 320 316
265 285 291 296 302 303 295 303 298 300 305 302 300 298 317 320 319 349 322 334 336 333 336 332 330 332 332 330 331 333 331 329 327 325 323 323 321 321 325 327 327 329 323 318
280 284 284 286 301 311 303 288 288 291 295 301 297 301 298 309 302 319 319 315 320 325 327 327 328 330 333 333 333 332 331 331 329 328 327 325 324 327 329 334 333 333 327 324
280 280 284 291 297 305 298 311 294 291 299 301 299 299 300 302 304 306 310 311 313 316 320 322 325 328 331 332 332 331 332 333 332 330 331 331 330 332 336 340 342 342 331 328
275 279 283 285 286 295 298 297 297 297 297 302 313 307 306 311 312 310 313 315 316 318 321 328 331 332 332 330 330 331 331 333 334 335 336 338 338 341 343 347 349 349 341 336
277 278 284 281 282 288 291 293 294 302 306 300 297 305 316 312 315 316 318 323 323 326 328 330 331 333 333 332 333 335 335 337 339 339 342 344 346 350 352 354 357 353 350 345
280 278 289 291 293 285 299 302 309 306 309 316 320 319 322 328 331 328 329 328 329 331 335 337 337 340 343 344 344 345 344 345 346 347 348 351 354 355 357 0 0 355 351 352
281 281 288 287 283 300 303 305 303 306 306 319 318 331 336 340 340 335 339 342 342 343 347 349 352 352 351 350 353 355 359 358 359 357 356 356 360 0 1 1 360 359 358 360
280 283 286 279 278 284 308 324 333 326 312 329 332 327 336 338 324 333 349 357 1 2 358 354 356 349 339 321 313 331 344 355 353 358 360 359 3 2 3 2 1 1 4 7
270 273 271 275 286 307 310 311 323 312 321 344 343 339 335 332 343 20 18 359 347 347 20 357 335 332 317 300 317 337 351 351 346 355 356 359 4 5 2 360 1 1 4 6
270 267 274 282 292 294 293 312 321 347 0 2 0 3 10 27 37 37 347 31 7 351 292 317 343 335 329 327 330 342 347 351 344 345 356 3 4 4 5 360 357 358 360 2
276 276 284 286 290 316 327 352 6 22 31 27 31 28 43 49 57 19 63 25 338 321 303 330 312 338 344 345 346 342 338 341 352 354 359 11 11 11 9 6 4 1 359 357
278 292 293 290 306 337 358 11 26 42 48 42 45 56 67 68 40 44 55 337 337 291 333 351 355 350 339 331 335 334 329 331 345 358 359 4 9 14 12 14 14 10 7 5
273 276 291 295 347 4 20 38 54 58 59 44 55 68 80 77 58 59 46 28 11 8 348 338 315 278 289 310 332 335 337 350 4 9 11 10 10 8 11 13 12 13 12 8
269 287 295 305 98 351 72 79 77 70 67 62 71 67 60 63 59 50 44 20 321 286 284 322 334 343 339 352 358 352 355 5 9 9 10 9 6 4 5 5 8 12 11 5